When you browse on this site, cookies collect data to enhance your experience and personalize the content and advertising you see.
Visit our Privacy Policy to learn more. By continuing to use the site, you agree to this use of cookies and data.
  • In Sweden
  • List of Countries
  • For 7 days
  • Water Temperature
  • Weather Map
  • Weather Widgets
  • user-avatar
    Login

    Hourly Weather Carevo

    Today, 20 October, Sunday

    Time Temperature Precipitation Wind Pressure Humidity
    00:00 +12°C° 0 mm 1 mps 755 mmHg 95%
    01:00 +12°C° 0 mm 1 mps 756 mmHg 95%
    02:00 +12°C° 0 mm 1 mps 756 mmHg 95%
    03:00 +11°C° 0 mm 1 mps 756 mmHg 93%
    04:00 +11°C° 0 mm 1 mps 756 mmHg 90%
    05:00 +11°C° 0 mm 1 mps 756 mmHg 88%
    06:00 +11°C° 0 mm 1 mps 757 mmHg 87%
    07:00 +11°C° 0 mm 1 mps 757 mmHg 87%
    08:00 +11°C° 0 mm 1 mps 757 mmHg 86%
    09:00 +12°C° 0 mm 1 mps 757 mmHg 81%
    10:00 +13°C° 0 mm 1 mps 757 mmHg 76%
    11:00 +14°C° 0 mm 1 mps 757 mmHg 71%
    12:00 +14°C° 0 mm 1 mps 757 mmHg 71%
    13:00 +15°C° 0 mm 1 mps 757 mmHg 71%
    14:00 +15°C° 0 mm 1 mps 757 mmHg 71%
    15:00 +15°C° 0 mm 1 mps 757 mmHg 77%
    16:00 +14°C° 0 mm 1 mps 756 mmHg 84%
    17:00 +13°C° 0 mm 2 mps 756 mmHg 90%
    18:00 +13°C° 0 mm 2 mps 756 mmHg 92%
    19:00 +13°C° 0 mm 2 mps 756 mmHg 93%
    20:00 +13°C° 0 mm 3 mps 756 mmHg 94%
    21:00 +13°C° 0.1 mm 3 mps 755 mmHg 95%
    22:00 +13°C° 0.1 mm 3 mps 755 mmHg 95%
    23:00 +13°C° 0.1 mm 4 mps 754 mmHg 95%

    Tomorrow, 21 October, Monday

    Time Temperature Precipitation Wind Pressure Humidity
    00:00 +13°C° 0.1 mm 4 mps 754 mmHg 94%
    01:00 +13°C° 0.1 mm 4 mps 754 mmHg 94%
    02:00 +13°C° 0.1 mm 4 mps 754 mmHg 93%
    03:00 +13°C° 0.5 mm 4 mps 754 mmHg 93%
    04:00 +13°C° 0.5 mm 4 mps 754 mmHg 94%
    05:00 +13°C° 0.5 mm 3 mps 754 mmHg 94%
    06:00 +12°C° 0.8 mm 3 mps 754 mmHg 93%
    07:00 +12°C° 0.8 mm 3 mps 755 mmHg 93%
    08:00 +12°C° 0.8 mm 3 mps 755 mmHg 92%
    09:00 +12°C° 0.1 mm 4 mps 756 mmHg 89%
    10:00 +12°C° 0.1 mm 4 mps 756 mmHg 86%
    11:00 +13°C° 0.1 mm 4 mps 756 mmHg 82%
    12:00 +12°C° 0 mm 4 mps 757 mmHg 80%
    13:00 +12°C° 0 mm 4 mps 757 mmHg 77%
    14:00 +12°C° 0 mm 4 mps 758 mmHg 75%
    15:00 +11°C° 0 mm 3 mps 759 mmHg 77%
    16:00 +10°C° 0 mm 3 mps 759 mmHg 79%
    17:00 +9°C° 0 mm 2 mps 759 mmHg 81%
    18:00 +8°C° 0 mm 2 mps 760 mmHg 82%
    19:00 +8°C° 0 mm 2 mps 760 mmHg 83%
    20:00 +9°C° 0 mm 1 mps 761 mmHg 84%
    21:00 +8°C° 0 mm 1 mps 761 mmHg 86%
    22:00 +8°C° 0 mm 1 mps 761 mmHg 88%
    23:00 +7°C° 0 mm 1 mps 761 mmHg 90%

    Day after tomorrow, 22 October, Tuesday

    Time Temperature Precipitation Wind Pressure Humidity
    00:00 +7°C° 0 mm 1 mps 761 mmHg 91%
    01:00 +7°C° 0 mm 1 mps 761 mmHg 92%
    02:00 +6°C° 0 mm 1 mps 762 mmHg 92%
    03:00 +6°C° 0 mm 1 mps 762 mmHg 93%
    04:00 +6°C° 0 mm 1 mps 761 mmHg 94%
    05:00 +5°C° 0 mm 1 mps 761 mmHg 95%
    06:00 +5°C° 0 mm 2 mps 761 mmHg 96%
    07:00 +5°C° 0 mm 2 mps 761 mmHg 96%
    08:00 +5°C° 0 mm 2 mps 761 mmHg 96%
    09:00 +7°C° 0 mm 3 mps 761 mmHg 91%
    10:00 +8°C° 0 mm 3 mps 760 mmHg 86%
    11:00 +10°C° 0 mm 3 mps 760 mmHg 81%
    12:00 +10°C° 0.3 mm 3 mps 759 mmHg 84%
    13:00 +10°C° 0.3 mm 4 mps 759 mmHg 87%
    14:00 +11°C° 0.3 mm 4 mps 758 mmHg 89%
    15:00 +11°C° 0 mm 4 mps 758 mmHg 90%
    16:00 +12°C° 0 mm 4 mps 757 mmHg 90%
    17:00 +12°C° 0 mm 4 mps 756 mmHg 90%
    18:00 +12°C° 0 mm 4 mps 756 mmHg 91%
    19:00 +12°C° 0 mm 4 mps 756 mmHg 92%
    20:00 +12°C° 0 mm 4 mps 756 mmHg 93%
    21:00 +12°C° 0 mm 4 mps 756 mmHg 93%
    22:00 +12°C° 0 mm 4 mps 755 mmHg 93%
    23:00 +13°C° 0 mm 4 mps 755 mmHg 93%

    23 October, Wednesday

    Time Temperature Precipitation Wind Pressure Humidity
    00:00 +12°C° 0 mm 4 mps 755 mmHg 92%
    01:00 +12°C° 0 mm 4 mps 755 mmHg 91%
    02:00 +12°C° 0 mm 4 mps 755 mmHg 91%
    03:00 +11°C° 0 mm 4 mps 755 mmHg 91%
    04:00 +11°C° 0 mm 3 mps 755 mmHg 90%
    05:00 +10°C° 0 mm 3 mps 755 mmHg 90%
    06:00 +10°C° 0 mm 3 mps 755 mmHg 89%
    07:00 +10°C° 0 mm 3 mps 755 mmHg 88%
    08:00 +10°C° 0 mm 3 mps 755 mmHg 87%
    09:00 +11°C° 0 mm 3 mps 756 mmHg 84%
    10:00 +11°C° 0 mm 3 mps 756 mmHg 81%
    11:00 +12°C° 0 mm 3 mps 756 mmHg 78%
    12:00 +11°C° 0 mm 3 mps 756 mmHg 77%
    13:00 +11°C° 0 mm 3 mps 756 mmHg 76%
    14:00 +11°C° 0 mm 3 mps 756 mmHg 75%
    15:00 +10°C° 0 mm 3 mps 757 mmHg 76%
    16:00 +10°C° 0 mm 2 mps 757 mmHg 78%
    17:00 +9°C° 0 mm 2 mps 757 mmHg 80%
    18:00 +9°C° 0 mm 2 mps 757 mmHg 81%
    19:00 +9°C° 0 mm 2 mps 757 mmHg 81%
    20:00 +9°C° 0 mm 2 mps 758 mmHg 82%
    21:00 +9°C° 0 mm 2 mps 758 mmHg 84%
    22:00 +8°C° 0 mm 2 mps 758 mmHg 87%
    23:00 +8°C° 0 mm 2 mps 758 mmHg 89%

    24 October, Thursday

    Time Temperature Precipitation Wind Pressure Humidity
    00:00 +7°C° 0 mm 2 mps 758 mmHg 90%
    01:00 +7°C° 0 mm 2 mps 758 mmHg 92%
    02:00 +6°C° 0 mm 2 mps 758 mmHg 94%
    03:00 +6°C° 0 mm 2 mps 758 mmHg 95%
    04:00 +6°C° 0 mm 2 mps 758 mmHg 96%
    05:00 +5°C° 0 mm 2 mps 758 mmHg 96%
    06:00 +5°C° 0 mm 2 mps 758 mmHg 96%
    07:00 +5°C° 0 mm 2 mps 758 mmHg 96%
    08:00 +5°C° 0 mm 2 mps 758 mmHg 96%
    09:00 +6°C° 0 mm 2 mps 758 mmHg 92%
    10:00 +7°C° 0 mm 2 mps 758 mmHg 88%
    11:00 +8°C° 0 mm 2 mps 759 mmHg 84%
    12:00 +8°C° 0 mm 2 mps 759 mmHg 83%
    13:00 +8°C° 0 mm 2 mps 758 mmHg 83%
    14:00 +8°C° 0 mm 2 mps 758 mmHg 82%
    15:00 +7°C° 0 mm 2 mps 758 mmHg 85%
    16:00 +7°C° 0 mm 2 mps 758 mmHg 87%
    17:00 +7°C° 0 mm 1 mps 758 mmHg 90%
    18:00 +7°C° 0 mm 1 mps 758 mmHg 92%
    19:00 +6°C° 0 mm 1 mps 759 mmHg 94%
    20:00 +6°C° 0 mm 1 mps 759 mmHg 95%
    21:00 +6°C° 0 mm 1 mps 759 mmHg 96%
    22:00 +6°C° 0 mm 1 mps 758 mmHg 96%
    23:00 +5°C° 0 mm 2 mps 758 mmHg 96%

    25 October, Friday

    Time Temperature Precipitation Wind Pressure Humidity
    00:00 +5°C° 0 mm 2 mps 758 mmHg 96%
    01:00 +5°C° 0 mm 2 mps 758 mmHg 95%
    02:00 +5°C° 0 mm 2 mps 758 mmHg 95%
    03:00 +5°C° 0 mm 2 mps 758 mmHg 95%
    04:00 +5°C° 0 mm 2 mps 758 mmHg 94%
    05:00 +5°C° 0 mm 2 mps 757 mmHg 93%
    06:00 +5°C° 0 mm 2 mps 757 mmHg 92%
    07:00 +4°C° 0 mm 3 mps 757 mmHg 91%
    08:00 +4°C° 0 mm 3 mps 757 mmHg 90%
    09:00 +7°C° 0 mm 3 mps 756 mmHg 84%
    10:00 +7°C° 0 mm 4 mps 756 mmHg 78%
    11:00 +10°C° 0 mm 4 mps 756 mmHg 72%
    12:00 +10°C° 0 mm 4 mps 755 mmHg 69%
    13:00 +11°C° 0 mm 4 mps 755 mmHg 66%
    14:00 +12°C° 0 mm 4 mps 754 mmHg 63%
    15:00 +11°C° 0 mm 4 mps 754 mmHg 66%
    16:00 +10°C° 0 mm 4 mps 754 mmHg 69%
    17:00 +8°C° 0 mm 4 mps 754 mmHg 72%
    18:00 +8°C° 0 mm 4 mps 754 mmHg 75%
    19:00 +8°C° 0 mm 4 mps 754 mmHg 78%
    20:00 +8°C° 0 mm 4 mps 754 mmHg 81%
    21:00 +9°C° 0 mm 3 mps 754 mmHg 84%
    22:00 +10°C° 0 mm 3 mps 754 mmHg 87%
    23:00 +10°C° 0 mm 3 mps 754 mmHg 89%
    Show more